User: anonymous   Login
Location: Krakow
(50.0830°N, 19.9170°E)
Time: 22:00:50
(UTC+02:00)
Language:

CUBESAT XI-V - Orbit

View from above orbital plane
View from above orbital plane
View from above satellite
View from above satellite

Ground track
Ground track

The orbit data is extracted from the following two-line orbital elements,

1 28895U 05043F   24151.31060306  .00002259  00000-0  40524-3 0  9992
2 28895  98.1992 287.1159 0016578  57.0115 303.2680 14.67647586991837
Epoch (UTC): 30 May 2024 07:27:16
Eccentricity: 0.0016578
inclination: 98.1992°
perigee height: 657 km
apogee height: 680 km
right ascension of ascending node: 287.1159°
argument of perigee: 57.0115°
revolutions per day: 14.67647586
mean anomaly at epoch: 303.2680°
orbit number at epoch: 99183

The dashed part of the orbit path shows where the satellite is in the earth's shadow,  

DLR